Prins Christian Sund

KL  EN  DA
ASIAQ
Weather Now GREENLAND SURVEY
Updated [WGT/WGST] Temperature [°C] Wind [m/s] Air pressure [hPa] Relative humidity [%] Precipitation [mm]
Present Wind chill Speed Max
24.09 02:00n/an/a4,0 ⇙6,11007n/an/a
24.09 01:00n/an/a1,6 ⇘5,31007n/an/a
24.09 00:00n/an/a2,1 ⇘4,41008n/an/a
23.09 23:00n/an/a0,0 ⇓0,01008n/an/a
23.09 22:00n/an/a0,0 ⇓2,31008n/an/a
23.09 21:00n/an/a0,0 ⇓0,01008n/an/a
23.09 20:00n/an/a0,0 ⇓1,61008n/an/a
23.09 19:00n/an/a0,0 ⇓3,01008n/an/a
23.09 18:00n/an/a2,3 ⇖3,81008n/an/a
23.09 17:00n/an/a3,1 ⇖4,01008n/an/a
23.09 16:00n/an/a3,1 ⇖4,61008n/an/a
23.09 15:00n/an/a2,9 ⇖4,61008n/an/a
23.09 14:00n/an/a2,6 ⇖5,61008n/an/a
23.09 13:00n/an/a3,0 ⇖4,31008n/an/a
23.09 12:00n/an/a2,1 ⇐3,51007n/an/a
23.09 11:00n/an/a0,0 ⇓2,81007n/an/a
23.09 10:00n/an/a0,0 ⇓0,81007n/an/a
23.09 09:00n/an/a0,5 ⇘3,01006n/an/a
23.09 08:00n/an/a1,4 ⇘2,51006n/an/a
23.09 07:00n/an/a0,0 ⇓2,31006n/an/a
23.09 06:00n/an/a0,0 ⇓0,01005n/an/a
23.09 05:00n/an/a0,0 ⇓0,01004n/an/a
23.09 04:00n/an/a0,0 ⇓0,01004n/an/a
23.09 03:00n/an/a0,0 ⇓2,21003n/an/a
23.09 02:00n/an/a0,0 ⇓3,91003n/an/a
Position: (60.05527777,-43.16527777)

[Back]